User: anonymous   Login
Location: SAPM � Hemmingford
(45.0500°N, 73.5833°W)
Time: 05:06:26
(UTC-05:00)
Language:

Cosmos 1674 Rocket - Orbit

View from above orbital plane
View from above orbital plane
View from above satellite
View from above satellite

Ground track
Ground track

The orbit data is extracted from the following two-line orbital elements,

1 15945U 85069B   16044.99830110  .00000327  00000-0  36375-4 0  9998
2 15945  82.5253 231.1052 0021330  96.1726 264.1920 14.83823333648487
Epoch (UTC): 13 February 2016 23:57:33
Eccentricity: 0.0021330
inclination: 82.5253°
perigee height: 602 km
apogee height: 632 km
right ascension of ascending node: 231.1052°
argument of perigee: 96.1726°
revolutions per day: 14.83823333
mean anomaly at epoch: 264.1920°
orbit number at epoch: 64848

The dashed part of the orbit path shows where the satellite is in the earth's shadow,  

DLR